Fairbanks, AK

1:52 AM AKDT on September 28, 2016 (GMT -0800)
Fairbanks International

Weather History for PAFA - September, 2014

Change the Weather History Date:

Friday, September 26, 2014

  Actual Average Record
Temperature  
Mean Temperature 42 °F 40 °F  
Max Temperature 56 °F 49 °F 69 °F (1934)
Min Temperature 27 °F 31 °F 11 °F (1909)
Degree Days  
Heating Degree Days 23 25  
Month to date heating degree days 439 498  
Since 1 July heating degree days 760 887  
Cooling Degree Days 0 0  
Month to date cooling degree days 0 0  
Year to date cooling degree days 27 61  
Moisture  
Dew Point 22 °F    
Average Humidity 52    
Maximum Humidity 78    
Minimum Humidity 15    
Precipitation  
Precipitation 0.00 in 0.03 in 0.78 in (1999)
Month to date precipitation 2.80 0.98  
Year to date precipitation 15.52 8.55  
Snow  
Snow 0.00 in 0.10 in 2.40 in (1957)
Month to date snowfall T 1.3  
Since 1 July snowfall T 1.3  
Since 1 September snowfall T 1.3  
Snow Depth 0.00 in    
Sea Level Pressure  
Sea Level Pressure 29.94 in    
Wind  
Wind Speed 7 mph (NE)    
Max Wind Speed 13 mph    
Max Gust Speed -    
Visibility 10 miles    
Events      
T = Trace of Precipitation, MM = Missing Value Source: NWS Daily Summary

Daily Weather History Graph

Daily Weather History Graph

Search for Another Location

Airport or City:

Trip Planner

Search our weather history database for the weather conditions in past years. The results will help you decide how hot, cold, wet, or windy it might be!

Date:

Astronomy

Sep. 26, 2014 Rise Set
Actual Time 7:46 AM AKDT 7:37 PM AKDT
Civil Twilight 6:57 AM AKDT 8:25 PM AKDT
Nautical Twilight 5:58 AM AKDT 9:24 PM AKDT
Astronomical Twilight 4:52 AM AKDT 10:29 PM AKDT
Moon 11:12 AM AKDT (9/26) 7:57 PM AKDT (9/26)
Length of Visible Light 13h 27m
Length of Day
11h 50m
Waxing Crescent, 6% of the Moon is Illuminated
Sep 26
Waxing Crescent
Oct 1
First Quarter
Oct 8
Full
Oct 15
Last Quarter
Oct 23
New

Hourly Weather History & Observations

Time (AKDT) Temp. Windchill Dew Point Humidity Pressure Visibility Wind Dir Wind Speed Gust Speed Precip Events Conditions
12:53 AM 28.9 °F 22.8 °F 23.0 °F 78% 30.05 in 10.0 mi NNE 5.8 mph - N/A   Clear
1:53 AM 28.9 °F 21.9 °F 23.0 °F 78% 30.04 in 10.0 mi NNE 6.9 mph - N/A   Clear
2:53 AM 28.0 °F 21.7 °F 21.9 °F 78% 30.03 in 10.0 mi NE 5.8 mph - N/A   Clear
3:53 AM 28.9 °F 21.9 °F 21.9 °F 75% 30.02 in 10.0 mi NE 6.9 mph - N/A   Partly Cloudy
4:53 AM 28.9 °F 25.2 °F 21.9 °F 75% 30.01 in 10.0 mi NE 3.5 mph - N/A   Partly Cloudy
5:53 AM 28.4 °F 23.3 °F 21.2 °F 74% 29.98 in 10.0 mi NE 4.6 mph - N/A   Partly Cloudy
6:53 AM 28.0 °F 21.7 °F 21.0 °F 75% 30.00 in 10.0 mi NNE 5.8 mph - N/A   Partly Cloudy
7:53 AM 28.9 °F 23.9 °F 21.9 °F 75% 30.00 in 10.0 mi NE 4.6 mph - N/A   Scattered Clouds
8:53 AM 33.1 °F 26.9 °F 21.9 °F 64% 29.99 in 10.0 mi NE 6.9 mph - N/A   Mostly Cloudy
9:53 AM 36.0 °F 32.1 °F 24.1 °F 62% 29.98 in 10.0 mi NE 4.6 mph - N/A   Mostly Cloudy
10:53 AM 39.0 °F 36.8 °F 24.1 °F 55% 29.96 in 10.0 mi NE 3.5 mph - N/A   Mostly Cloudy
11:53 AM 45.0 °F 42.6 °F 23.0 °F 42% 29.94 in 10.0 mi ENE 4.6 mph - N/A   Mostly Cloudy
12:53 PM 50.0 °F - 23.0 °F 35% 29.93 in 10.0 mi NE 9.2 mph - N/A   Mostly Cloudy
1:53 PM 52.0 °F - 19.0 °F 27% 29.91 in 10.0 mi ENE 12.7 mph - N/A   Mostly Cloudy
2:53 PM 54.0 °F - 19.9 °F 26% 29.89 in 10.0 mi ENE 10.4 mph - N/A   Mostly Cloudy
3:53 PM 55.0 °F - 21.0 °F 27% 29.88 in 10.0 mi NE 10.4 mph - N/A   Mostly Cloudy
4:53 PM 54.0 °F - 21.0 °F 28% 29.86 in 10.0 mi ENE 9.2 mph - N/A   Mostly Cloudy
5:53 PM 55.0 °F - 21.9 °F 28% 29.85 in 10.0 mi ENE 8.1 mph - N/A   Mostly Cloudy
6:53 PM 48.9 °F - 24.1 °F 38% 29.86 in 10.0 mi NE 6.9 mph - N/A   Mostly Cloudy
7:53 PM 45.0 °F 43.5 °F 26.1 °F 48% 29.86 in 10.0 mi NE 3.5 mph - N/A   Scattered Clouds
8:53 PM 39.0 °F 34.8 °F 28.0 °F 65% 29.87 in 10.0 mi NNE 5.8 mph - N/A   Scattered Clouds
9:53 PM 39.9 °F 33.9 °F 23.0 °F 51% 29.87 in 10.0 mi North 9.2 mph - N/A   Mostly Cloudy
10:53 PM 41.0 °F 34.7 °F 21.9 °F 47% 29.87 in 10.0 mi North 10.4 mph - N/A   Mostly Cloudy
11:53 PM 41.0 °F 34.7 °F 21.0 °F 45% 29.86 in 10.0 mi North 10.4 mph - N/A   Mostly Cloudy